Change the Weather History Date:

Thursday, March 31, 2011

  Actual Average Record
Temperature  
Mean Temperature 54 °F 60 °F  
Max Temperature 62 °F 72 °F 87 °F (1974)
Min Temperature 45 °F 48 °F 29 °F (1987)
Degree Days  
Heating Degree Days 11 6  
Month to date heating degree days 224 278  
Since 1 July heating degree days 2215 2270  
Cooling Degree Days 0 1  
Month to date cooling degree days 44 27  
Year to date cooling degree days 65 37  
Growing Degree Days 3 (Base 50)    
Moisture  
Dew Point 43 °F    
Average Humidity 72    
Maximum Humidity 93    
Minimum Humidity 51    
Precipitation  
Precipitation T in 0.18 in 3.10 in (1922)
Month to date precipitation 8.72 5.04  
Year to date precipitation 15.10 14.77  
Sea Level Pressure  
Sea Level Pressure 29.84 in    
Wind  
Wind Speed 4 mph (NNW)    
Max Wind Speed 13 mph    
Max Gust Speed 16 mph    
Visibility 9 miles    
Events      
T = Trace of Precipitation, MM = Missing Value Source: NWS Daily Summary

Daily Weather History Graph

Daily Weather History Graph

Search for Another Location

Airport or City:

Trip Planner

Search our weather history database for the weather conditions in past years. The results will help you decide how hot, cold, wet, or windy it might be!

Date:

Astronomy

Mar. 31, 2011 Rise Set
Actual Time 6:50 AM CDT 7:19 PM CDT
Civil Twilight 6:25 AM CDT 7:44 PM CDT
Nautical Twilight 5:56 AM CDT 8:12 PM CDT
Astronomical Twilight 5:27 AM CDT 8:42 PM CDT
Moon 5:02 AM CDT (3/31) 5:01 PM CDT (3/31)
Length of Visible Light 13h 18m
Length of Day
12h 29m
Waning Crescent, 7% of the Moon is Illuminated
Mar 31
Waning Crescent
Apr 3
New
Apr 11
First Quarter
Apr 17
Full
Apr 24
Last Quarter

Hourly Weather History & Observations

Time (CDT) Temp. Windchill Dew Point Humidity Pressure Visibility Wind Dir Wind Speed Gust Speed Precip Events Conditions
12:54 AM 46.9 °F - 43.0 °F 86% 29.91 in 9.0 mi NNW 10.4 mph - N/A   Overcast
1:54 AM 46.9 °F - 42.1 °F 83% 29.88 in 9.0 mi North 4.6 mph - N/A   Overcast
2:54 AM 46.0 °F 41.9 °F 42.1 °F 86% 29.86 in 8.0 mi North 8.1 mph - N/A   Overcast
3:54 AM 46.0 °F 43.1 °F 42.1 °F 86% 29.86 in 9.0 mi NNW 5.8 mph - N/A   Overcast
4:06 AM 46.4 °F 45.2 °F 42.8 °F 87% 29.86 in 9.0 mi North 3.5 mph - N/A   Overcast
4:54 AM 46.0 °F 42.5 °F 42.1 °F 86% 29.86 in 8.0 mi NNW 6.9 mph - N/A   Overcast
5:54 AM 45.0 °F - 41.0 °F 86% 29.84 in 9.0 mi Calm Calm - N/A   Overcast
6:54 AM 45.0 °F - 39.9 °F 82% 29.84 in 10.0 mi Calm Calm - N/A   Overcast
7:54 AM 45.0 °F 40.6 °F 41.0 °F 86% 29.88 in 8.0 mi NW 8.1 mph - N/A   Overcast
8:54 AM 45.0 °F 40.6 °F 41.0 °F 86% 29.88 in 7.0 mi NNW 8.1 mph - N/A   Overcast
9:51 AM 46.4 °F 42.4 °F 39.2 °F 76% 29.89 in 7.0 mi North 8.1 mph - N/A   Overcast
9:54 AM 46.9 °F - 39.9 °F 77% 29.90 in 7.0 mi North 9.2 mph - N/A   Overcast
10:54 AM 48.9 °F - 39.9 °F 71% 29.89 in 8.0 mi NNE 6.9 mph - N/A   Mostly Cloudy
11:30 AM 51.8 °F - 41.0 °F 67% 29.89 in 9.0 mi NNE 4.6 mph - N/A   Mostly Cloudy
11:54 AM 52.0 °F - 42.1 °F 69% 29.88 in 9.0 mi Variable 5.8 mph - N/A   Scattered Clouds
12:54 PM 54.0 °F - 42.1 °F 64% 29.86 in 9.0 mi Variable 4.6 mph - N/A   Partly Cloudy
1:54 PM 57.9 °F - 43.0 °F 58% 29.83 in 9.0 mi Variable 5.8 mph - N/A   Partly Cloudy
2:54 PM 59.0 °F - 42.1 °F 53% 29.80 in 10.0 mi Calm Calm - N/A   Partly Cloudy
3:54 PM 60.1 °F - 42.1 °F 51% 29.78 in 10.0 mi NW 4.6 mph - N/A   Clear
4:54 PM 61.0 °F - 43.0 °F 52% 29.76 in 10.0 mi WSW 8.1 mph - N/A   Scattered Clouds
5:54 PM 60.1 °F - 42.1 °F 51% 29.75 in 10.0 mi West 5.8 mph - N/A   Scattered Clouds
6:54 PM 57.0 °F - 46.0 °F 67% 29.76 in 10.0 mi NE 5.8 mph - N/A   Mostly Cloudy
7:54 PM 54.0 °F - 46.9 °F 77% 29.78 in 10.0 mi Calm Calm - N/A   Mostly Cloudy
8:54 PM 50.0 °F - 46.9 °F 89% 29.80 in 9.0 mi Calm Calm - 0.00 in   Scattered Clouds
9:54 PM 50.0 °F - 46.9 °F 89% 29.83 in 9.0 mi Calm Calm - N/A   Scattered Clouds
10:54 PM 48.0 °F - 45.0 °F 89% 29.82 in 8.0 mi Calm Calm - N/A   Clear
11:54 PM 46.0 °F - 44.1 °F 93% 29.81 in 6.0 mi Calm Calm - N/A   Clear